• In Deutschland
  • Länderverzeichnis
  • Für 7 Tage
  • Wassertemperatur
  • Satellitenkarten
  • Wetterkarte
  • Widgets
  • user-avatar
    Anmelden

    Stündliche Wetter Megri

    Heute, 26 September, Dienstag

    Zeit Temperatur Niederschläge Wind Luftdruck Luftfeuchtigkeit
    00:00 +15°C° 0,2 mm 2 m/S 626 mmHg 73%
    01:00 +15°C° 0 mm 2 m/S 626 mmHg 74%
    02:00 +14°C° 0 mm 2 m/S 625 mmHg 76%
    03:00 +14°C° 0 mm 2 m/S 625 mmHg 77%
    04:00 +13°C° 0 mm 2 m/S 625 mmHg 78%
    05:00 +13°C° 0 mm 2 m/S 625 mmHg 78%
    06:00 +13°C° 0 mm 2 m/S 625 mmHg 78%
    07:00 +15°C° 0 mm 2 m/S 625 mmHg 67%
    08:00 +16°C° 0 mm 2 m/S 626 mmHg 55%
    09:00 +18°C° 0 mm 2 m/S 627 mmHg 43%
    10:00 +21°C° 0 mm 1 m/S 627 mmHg 38%
    11:00 +22°C° 0 mm 1 m/S 627 mmHg 32%
    12:00 +23°C° 0 mm 1 m/S 627 mmHg 27%
    13:00 +24°C° 0 mm 1 m/S 627 mmHg 26%
    14:00 +24°C° 0 mm 1 m/S 627 mmHg 26%
    15:00 +24°C° 0 mm 1 m/S 626 mmHg 25%
    16:00 +23°C° 0 mm 2 m/S 626 mmHg 31%
    17:00 +20°C° 0 mm 2 m/S 626 mmHg 38%
    18:00 +19°C° 0 mm 2 m/S 625 mmHg 44%
    19:00 +18°C° 0 mm 3 m/S 625 mmHg 51%
    20:00 +17°C° 0 mm 3 m/S 625 mmHg 57%
    21:00 +16°C° 0 mm 3 m/S 625 mmHg 64%
    22:00 +16°C° 0 mm 3 m/S 625 mmHg 67%
    23:00 +14°C° 0 mm 3 m/S 624 mmHg 70%

    Morgen, 27 September, Mittwoch

    Zeit Temperatur Niederschläge Wind Luftdruck Luftfeuchtigkeit
    00:00 +14°C° 0 mm 3 m/S 624 mmHg 73%
    01:00 +14°C° 0 mm 3 m/S 624 mmHg 74%
    02:00 +14°C° 0 mm 2 m/S 624 mmHg 76%
    03:00 +14°C° 0 mm 2 m/S 624 mmHg 77%
    04:00 +14°C° 0 mm 2 m/S 624 mmHg 78%
    05:00 +13°C° 0 mm 2 m/S 624 mmHg 78%
    06:00 +13°C° 0 mm 2 m/S 623 mmHg 79%
    07:00 +15°C° 0 mm 2 m/S 624 mmHg 69%
    08:00 +17°C° 0 mm 2 m/S 625 mmHg 59%
    09:00 +19°C° 0 mm 2 m/S 626 mmHg 48%
    10:00 +20°C° 0 mm 2 m/S 626 mmHg 42%
    11:00 +21°C° 0 mm 2 m/S 626 mmHg 35%
    12:00 +24°C° 0 mm 2 m/S 626 mmHg 29%
    13:00 +24°C° 0 mm 3 m/S 626 mmHg 28%
    14:00 +24°C° 0 mm 3 m/S 625 mmHg 27%
    15:00 +25°C° 0 mm 3 m/S 625 mmHg 27%
    16:00 +22°C° 0 mm 3 m/S 625 mmHg 32%
    17:00 +21°C° 0 mm 3 m/S 624 mmHg 38%
    18:00 +19°C° 0 mm 4 m/S 624 mmHg 43%
    19:00 +18°C° 0 mm 4 m/S 624 mmHg 50%
    20:00 +17°C° 0 mm 4 m/S 624 mmHg 56%
    21:00 +15°C° 0 mm 4 m/S 624 mmHg 63%
    22:00 +14°C° 0 mm 4 m/S 624 mmHg 67%
    23:00 +14°C° 0 mm 3 m/S 624 mmHg 71%

    übermorgen, 28 September, Donnerstag

    Zeit Temperatur Niederschläge Wind Luftdruck Luftfeuchtigkeit
    00:00 +13°C° 0 mm 3 m/S 624 mmHg 75%
    01:00 +13°C° 0 mm 3 m/S 623 mmHg 76%
    02:00 +12°C° 0 mm 3 m/S 623 mmHg 77%
    03:00 +12°C° 0 mm 3 m/S 623 mmHg 78%
    04:00 +12°C° 0 mm 3 m/S 623 mmHg 79%
    05:00 +11°C° 0 mm 3 m/S 623 mmHg 80%
    06:00 +11°C° 0 mm 3 m/S 623 mmHg 80%
    07:00 +12°C° 0 mm 3 m/S 624 mmHg 73%
    08:00 +14°C° 0 mm 3 m/S 625 mmHg 66%
    09:00 +16°C° 0 mm 3 m/S 625 mmHg 59%
    10:00 +17°C° 0 mm 2 m/S 625 mmHg 53%
    11:00 +19°C° 0 mm 2 m/S 626 mmHg 47%
    12:00 +20°C° 0 mm 2 m/S 626 mmHg 41%
    13:00 +20°C° 0 mm 2 m/S 626 mmHg 39%
    14:00 +20°C° 0 mm 2 m/S 626 mmHg 37%
    15:00 +21°C° 0 mm 2 m/S 625 mmHg 36%
    16:00 +19°C° 0 mm 3 m/S 625 mmHg 42%
    17:00 +18°C° 0 mm 3 m/S 625 mmHg 48%
    18:00 +15°C° 0 mm 4 m/S 625 mmHg 55%
    19:00 +14°C° 0 mm 4 m/S 625 mmHg 60%
    20:00 +13°C° 0 mm 4 m/S 625 mmHg 66%
    21:00 +12°C° 0 mm 4 m/S 625 mmHg 71%
    22:00 +12°C° 0 mm 4 m/S 625 mmHg 72%
    23:00 +12°C° 0 mm 4 m/S 625 mmHg 73%

    29 September, Freitag

    Zeit Temperatur Niederschläge Wind Luftdruck Luftfeuchtigkeit
    00:00 +11°C° 0 mm 4 m/S 625 mmHg 74%
    01:00 +11°C° 0 mm 4 m/S 625 mmHg 75%
    02:00 +11°C° 0 mm 3 m/S 625 mmHg 77%
    03:00 +10°C° 0 mm 3 m/S 625 mmHg 78%
    04:00 +10°C° 0 mm 3 m/S 625 mmHg 79%
    05:00 +10°C° 0 mm 3 m/S 625 mmHg 80%
    06:00 +10°C° 0 mm 3 m/S 625 mmHg 80%
    07:00 +11°C° 0 mm 3 m/S 625 mmHg 73%
    08:00 +12°C° 0 mm 3 m/S 626 mmHg 67%
    09:00 +14°C° 0 mm 3 m/S 626 mmHg 60%
    10:00 +16°C° 0 mm 3 m/S 626 mmHg 54%
    11:00 +17°C° 0 mm 3 m/S 626 mmHg 47%
    12:00 +19°C° 0 mm 2 m/S 626 mmHg 41%
    13:00 +19°C° 0 mm 2 m/S 626 mmHg 39%
    14:00 +20°C° 0 mm 2 m/S 626 mmHg 36%
    15:00 +20°C° 0 mm 2 m/S 626 mmHg 34%
    16:00 +19°C° 0 mm 3 m/S 625 mmHg 39%
    17:00 +18°C° 0 mm 3 m/S 625 mmHg 44%
    18:00 +16°C° 0 mm 3 m/S 624 mmHg 49%
    19:00 +14°C° 0 mm 4 m/S 624 mmHg 56%
    20:00 +13°C° 0 mm 4 m/S 624 mmHg 63%
    21:00 +12°C° 0 mm 4 m/S 623 mmHg 70%
    22:00 +12°C° 0 mm 4 m/S 623 mmHg 70%
    23:00 +12°C° 0 mm 3 m/S 623 mmHg 71%

    30 September, Samstag

    Zeit Temperatur Niederschläge Wind Luftdruck Luftfeuchtigkeit
    00:00 +12°C° 0 mm 3 m/S 623 mmHg 72%
    01:00 +11°C° 0,1 mm 3 m/S 623 mmHg 72%
    02:00 +11°C° 0,1 mm 3 m/S 622 mmHg 73%
    03:00 +12°C° 0,1 mm 2 m/S 622 mmHg 73%
    04:00 +12°C° 0,2 mm 2 m/S 622 mmHg 73%
    05:00 +12°C° 0,2 mm 2 m/S 622 mmHg 74%
    06:00 +12°C° 0,2 mm 2 m/S 622 mmHg 74%
    07:00 +14°C° 0,3 mm 2 m/S 623 mmHg 65%
    08:00 +16°C° 0,3 mm 2 m/S 623 mmHg 55%
    09:00 +18°C° 0,3 mm 2 m/S 624 mmHg 46%
    10:00 +20°C° 0,2 mm 4 m/S 624 mmHg 39%
    11:00 +22°C° 0,2 mm 5 m/S 624 mmHg 32%
    12:00 +24°C° 0,2 mm 7 m/S 624 mmHg 25%
    13:00 +24°C° 0,1 mm 7 m/S 623 mmHg 25%
    14:00 +24°C° 0,1 mm 8 m/S 623 mmHg 24%
    15:00 +26°C° 0,1 mm 9 m/S 622 mmHg 23%
    16:00 +23°C° 0,2 mm 7 m/S 622 mmHg 27%
    17:00 +21°C° 0,2 mm 6 m/S 622 mmHg 31%
    18:00 +20°C° 0,2 mm 5 m/S 621 mmHg 35%
    19:00 +19°C° 0 mm 4 m/S 622 mmHg 37%
    20:00 +18°C° 0 mm 4 m/S 622 mmHg 40%
    21:00 +17°C° 0 mm 3 m/S 622 mmHg 42%
    22:00 +16°C° 0 mm 3 m/S 622 mmHg 43%
    23:00 +16°C° 0 mm 2 m/S 622 mmHg 44%

    1 Oktober, Sonntag

    Zeit Temperatur Niederschläge Wind Luftdruck Luftfeuchtigkeit
    00:00 +15°C° 0 mm 2 m/S 622 mmHg 45%
    01:00 +15°C° 0 mm 2 m/S 622 mmHg 46%
    02:00 +14°C° 0 mm 2 m/S 622 mmHg 46%
    03:00 +14°C° 0 mm 2 m/S 622 mmHg 47%
    04:00 +13°C° 0 mm 2 m/S 622 mmHg 48%
    05:00 +13°C° 0 mm 2 m/S 622 mmHg 49%
    06:00 +13°C° 0 mm 1 m/S 622 mmHg 50%
    07:00 +14°C° 0 mm 2 m/S 623 mmHg 44%
    08:00 +16°C° 0 mm 2 m/S 624 mmHg 39%
    09:00 +18°C° 0 mm 3 m/S 624 mmHg 33%
    10:00 +19°C° 0 mm 3 m/S 625 mmHg 30%
    11:00 +20°C° 0 mm 3 m/S 625 mmHg 27%
    12:00 +22°C° 0 mm 4 m/S 625 mmHg 24%
    13:00 +22°C° 0 mm 4 m/S 624 mmHg 22%
    14:00 +22°C° 0 mm 4 m/S 624 mmHg 21%
    15:00 +22°C° 0 mm 4 m/S 624 mmHg 19%
    16:00 +21°C° 0 mm 3 m/S 624 mmHg 22%
    17:00 +20°C° 0 mm 2 m/S 623 mmHg 24%
    18:00 +19°C° 0 mm 1 m/S 623 mmHg 27%
    19:00 +18°C° 0 mm 1 m/S 623 mmHg 29%
    20:00 +18°C° 0 mm 1 m/S 623 mmHg 32%
    21:00 +16°C° 0 mm 1 m/S 623 mmHg 35%
    22:00 +15°C° 0 mm 1 m/S 623 mmHg 37%
    23:00 +15°C° 0 mm 1 m/S 622 mmHg 40%
    Mehr zeigen